Location: Ladrillo (historical)
(32.8195°N, 117.2231°W)
Time: 03:44:47
(UTC+00:00)

Cosmos 1980 Rocket - Pass Details

Date: 29 October 2020
Orbit: 831 x 848 km, 71.0° (Epoch: 26 November)

Event Time Altitude Azimuth Distance (km) Brightness Sun altitude
Rises 12:52:10 0° 338° (NNW) 3,377 5.1 -15.8°
Reaches altitude 10° 12:54:36 10° 338° (NNW) 2,441 4.3 -15.3°
Maximum altitude 13:00:12 83° 251° (WSW) 841 2.1 -14.1°
Drops below altitude 10° 13:05:48 10° 164° (SSE) 2,435 4.9 -12.9°
Sets 13:08:13 0° 163° (SSE) 3,368 5.7 -12.4°
